| time (UTC) | temp F | wind direction | speed knots | gust knots | rain 1hr in | rain 24hr in | rain mn in | humidity % | barometer mb |
| 20260504081504 | 42 | 280 | 0.0 | 0.0 | 0.00 | 0.00 | 0.00 | 82 | 1008.4 |
| 20260504070118 | 45 | 280 | 0.0 | 0.0 | 0.00 | 0.00 | 0.00 | 79 | 1008.4 |
| 20260504044536 | 53 | 280 | 0.0 | 0.0 | 0.00 | 0.00 | 0.00 | 66 | 1008.5 |
| 20260504043023 | 53 | 280 | 0.0 | 0.0 | 0.00 | 0.00 | 0.00 | 63 | 1008.6 |
| 20260504041559 | 55 | 280 | 0.0 | 0.0 | 0.00 | 0.00 | 0.00 | 59 | 1008.4 |
| 20260504040103 | 56 | 280 | 0.0 | 0.0 | 0.00 | 0.00 | 0.00 | 56 | 1008.4 |
| 20260504034545 | 58 | 280 | 0.0 | 0.0 | 0.00 | 0.00 | 0.00 | 54 | 1008.3 |
| 20260504033049 | 60 | 280 | 0.0 | 0.0 | 0.00 | 0.00 | 0.00 | 48 | 1008.2 |
| 20260504031519 | 63 | 280 | 0.0 | 0.0 | 0.00 | 0.00 | 0.00 | 46 | 1008.1 |
| 20260504030019 | 65 | 280 | 0.0 | 0.0 | 0.00 | 0.00 | 0.00 | 37 | 1008.0 |
| 20260504024501 | 67 | 280 | 0.0 | 0.0 | 0.00 | 0.00 | 0.00 | 36 | 1007.9 |
| 20260504023101 | 69 | 280 | 0.9 | 0.0 | 0.00 | 0.00 | 0.00 | 34 | 1007.9 |
| 20260504021541 | 70 | 280 | 2.6 | 0.0 | 0.00 | 0.00 | 0.00 | 34 | 1008.0 |
| 20260504020040 | 71 | 280 | 2.6 | 0.0 | 0.00 | 0.00 | 0.00 | 34 | 1008.1 |
| 20260504014521 | 72 | 280 | 3.5 | 0.0 | 0.00 | 0.00 | 0.00 | 33 | 1008.1 |
| 20260504013028 | 73 | 279 | 2.6 | 0.0 | 0.00 | 0.00 | 0.00 | 33 | 1008.2 |
| 20260504011501 | 73 | 280 | 3.5 | 0.0 | 0.00 | 0.00 | 0.00 | 33 | 1008.3 |
| 20260504010109 | 73 | 281 | 5.2 | 0.0 | 0.00 | 0.00 | 0.00 | 32 | 1008.5 |
| 20260504004541 | 73 | 283 | 6.1 | 0.0 | 0.00 | 0.00 | 0.00 | 31 | 1008.7 |
| 20260504003039 | 74 | 251 | 3.5 | 0.0 | 0.00 | 0.00 | 0.00 | 29 | 1008.7 |
| 20260504001521 | 74 | 271 | 4.3 | 0.0 | 0.00 | 0.00 | 0.00 | 29 | 1008.8 |
| 20260504000020 | 74 | 278 | 4.3 | 0.0 | 0.00 | 0.00 | 0.00 | 29 | 1008.9 |
| 20260503234502 | 75 | 284 | 6.1 | 0.0 | 0.00 | 0.00 | 0.00 | 29 | 1009.0 |
| 20260503233001 | 75 | 222 | 3.5 | 0.0 | 0.00 | 0.00 | 0.00 | 28 | 1009.1 |
| 20260503231542 | 74 | 285 | 5.2 | 0.0 | 0.00 | 0.00 | 0.00 | 31 | 1009.2 |
| 20260503230041 | 74 | 234 | 3.5 | 0.0 | 0.00 | 0.00 | 0.00 | 27 | 1009.2 |
| 20260503224522 | 75 | 284 | 4.3 | 0.0 | 0.00 | 0.00 | 0.00 | 28 | 1009.6 |
| 20260503223020 | 74 | 281 | 4.3 | 0.0 | 0.00 | 0.00 | 0.00 | 27 | 1009.7 |
| 20260503221501 | 74 | 294 | 6.1 | 0.0 | 0.00 | 0.00 | 0.00 | 28 | 1009.9 |
| 20260503220112 | 74 | 312 | 4.3 | 0.0 | 0.00 | 0.00 | 0.00 | 29 | 1010.0 |
| 20260503214540 | 74 | 286 | 5.2 | 0.0 | 0.00 | 0.00 | 0.00 | 29 | 1010.2 |
| 20260503213041 | 75 | 296 | 6.1 | 0.0 | 0.00 | 0.00 | 0.00 | 28 | 1010.4 |
| 20260503211521 | 74 | 276 | 5.2 | 0.0 | 0.00 | 0.00 | 0.00 | 25 | 1010.6 |
| 20260503210019 | 73 | 290 | 6.1 | 0.0 | 0.00 | 0.00 | 0.00 | 27 | 1010.7 |
| 20260503204503 | 74 | 294 | 6.1 | 0.0 | 0.00 | 0.00 | 0.00 | 27 | 1010.8 |
| 20260503203059 | 74 | 304 | 2.6 | 0.0 | 0.00 | 0.00 | 0.00 | 33 | 1010.9 |
| 20260503201540 | 75 | 286 | 2.6 | 0.0 | 0.00 | 0.00 | 0.00 | 32 | 1011.1 |
| 20260503200037 | 74 | 273 | 2.6 | 0.0 | 0.00 | 0.00 | 0.00 | 28 | 1011.3 |
| 20260503194525 | 74 | 210 | 2.6 | 0.0 | 0.00 | 0.00 | 0.00 | 27 | 1011.4 |
| 20260503193014 | 74 | 291 | 1.7 | 0.0 | 0.00 | 0.00 | 0.00 | 30 | 1011.6 |
| 20260503191600 | 71 | 227 | 2.6 | 0.0 | 0.00 | 0.00 | 0.00 | 35 | 1011.8 |
| 20260503190053 | 72 | 201 | 2.6 | 0.0 | 0.00 | 0.00 | 0.00 | 37 | 1012.0 |
| 20260503184532 | 71 | 202 | 2.6 | 0.0 | 0.00 | 0.00 | 0.00 | 39 | 1012.1 |
| 20260503183036 | 70 | 216 | 1.7 | 0.0 | 0.00 | 0.00 | 0.00 | 42 | 1012.4 |
| 20260503181524 | 70 | 225 | 0.9 | 0.0 | 0.00 | 0.00 | 0.00 | 44 | 1012.5 |
| 20260503180009 | 69 | 242 | 1.7 | 0.0 | 0.00 | 0.00 | 0.00 | 44 | 1012.6 |
| 20260503174555 | 68 | 279 | 0.9 | 0.0 | 0.00 | 0.00 | 0.00 | 44 | 1012.8 |
| 20260503173055 | 67 | 280 | 0.9 | 0.0 | 0.00 | 0.00 | 0.00 | 43 | 1012.9 |
| 20260503171529 | 66 | 281 | 0.0 | 0.0 | 0.00 | 0.00 | 0.00 | 45 | 1013.0 |